Back to catalog

STARLINK-30808

AliveCommunicationsVLEO
NORAD 58250·PAYLOAD·🇺🇸 United States

Launched Nov 8, 2023 from Cape Canaveral Space Force Station

Loading…

Next Passes (next 24 hours)

TLE

FreshSource: CelesTrak SupGP

Epoch: Sep 14, 2026, 21:23 UTC

1 58250C 23171W   26257.89145833  .00036526  00000+0  99089-3 0  2573
2 58250  42.9986 293.0715 0007976  53.8763 260.2283 15.36730431    15

Track STARLINK-30808 in real time with AllMySat

Download on the App Store